QPF
0.11 0.11 0.11 0.10 0.11 0.11 0.11 0.12 0.11 0.11 0.09 0.07 0.06 0.06 0.07 0.08 0.09 0.08 0.07 0.08 0.08 0.07 0.05 0.05 0.05 0.04 0.03 0.03 0.04 0.04 0.04 0.04 0.04 0.03 0.03 0.02 0.03 0.03 0.03 0.03 0.05 0.07 0.08
0.11 0.13 0.15 0.14 0.13 0.13 0.11 0.11 0.11 0.11 0.09 0.08 0.07 0.07 0.09 0.09 0.08 0.06 0.06 0.06 0.07 0.06 0.04 0.03 0.03 0.03 0.03 0.03 0.03 0.03 0.04 0.03 0.02 0.02 0.03 0.02 0.03 0.03 0.04 0.03 0.03 0.05 0.06
0.11 0.13 0.17 0.18 0.15 0.13 0.13 0.12 0.09 0.09 0.09 0.09 0.10 0.09 0.09 0.09 0.07 0.04 0.04 0.05 0.05 0.04 0.03 0.02 0.02 0.02 0.02 0.03 0.03 0.02 0.02 0.02 0.01 0.01 0.01 0.01 0.01 0.01 0.02 0.02 0.02 0.04 0.05
0.11 0.12 0.15 0.17 0.15 0.12 0.12 0.12 0.10 0.07 0.06 0.08 0.07 0.07 0.06 0.05 0.04 0.03 0.03 0.04 0.04 0.03 0.03 0.02 0.01 0.02 0.02 0.02 0.02 0.02 0.02 0.01 0.01 0.01 0.01 0.01 0.00 0.01 0.01 0.01 0.01 0.02 0.03
0.11 0.13 0.14 0.15 0.13 0.12 0.11 0.10 0.09 0.08 0.05 0.04 0.05 0.06 0.05 0.04 0.04 0.04 0.03 0.03 0.03 0.02 0.02 0.01 0.01 0.01 0.01 0.01 0.01 0.01 0.01 0.01 0.01 0.01 0.01 0.01 0.00 0.00 0.00 0.00 0.01 0.01 0.01
0.07 0.11 0.15 0.18 0.13 0.10 0.09 0.08 0.07 0.05 0.05 0.04 0.03 0.03 0.04 0.03 0.03 0.02 0.02 0.02 0.01 0.01 0.01 0.01 0.01 0.01 0.00 0.00 0.00 0.01 0.01 0.01 0.01 0.00 0.00 0.00 0.00 0.00 0.00 0.00 0.00 0.00 0.00
0.04 0.06 0.09 0.12 0.09 0.07 0.05 0.05 0.06 0.04 0.04 0.03 0.03 0.03 0.03 0.03 0.02 0.01 0.01 0.01 0.01 0.01 0.01 0.00 0.00 0.00 0.00 0.00 0.00 0.00 0.00 0.00 0.00 0.00 0.00 0.00 0.00 0.00 0.00 0.00 0.00 0.00 0.00
0.02 0.03 0.04 0.05 0.06 0.06 0.04 0.03 0.04 0.03 0.03 0.03 0.02 0.02 0.03 0.03 0.01 0.01 0.01 0.01 0.01 0.01 0.00 0.00 0.00 0.00 0.00 0.00 0.00 0.00 0.00 0.00 0.00 0.00 0.00 0.00 0.00 0.00 0.00 0.00 0.00 0.00 0.00
0.01 0.02 0.03 0.04 0.05 0.05 0.04 0.03 0.03 0.02 0.02 0.02 0.02 0.02 0.02 0.02 0.01 0.01 0.01 0.01 0.01 0.00 0.00 0.00 0.00 0.00 0.00 0.00 0.00 0.00 0.00 0.00 0.00 0.00 0.00 0.00 0.00 0.00 0.00 0.00 0.00 0.00 0.00
0.02 0.03 0.04 0.03 0.04 0.06 0.06 0.04 0.03 0.02 0.01 0.02 0.02 0.01 0.01 0.01 0.01 0.01 0.01 0.00 0.00 0.00 0.00 0.00 0.00 0.00 0.00 0.00 0.00 0.00 0.00 0.00 0.00 0.00 0.00 0.00 0.00 0.00 0.00 0.00 0.00 0.00 0.00
0.03 0.03 0.03 0.05 0.06 0.06 0.07 0.04 0.02 0.02 0.02 0.01 0.01 0.01 0.00 0.01 0.00 0.00 0.00 0.00 0.00 0.00 0.00 0.00 0.00 0.00 0.00 0.00 0.00 0.00 0.00 0.00 0.00 0.00 0.00 0.00 0.00 0.00 0.00 0.00 0.00 0.00 0.00
0.03 0.04 0.04 0.05 0.04 0.06 0.07 0.04 0.01 0.01 0.01 0.01 0.00 0.00 0.00 0.00 0.00 0.00 0.00 0.00 0.00 0.00 0.00 0.00 0.00 0.00 0.00 0.00 0.00 0.00 0.00 0.00 0.00 0.00 0.00 0.00 0.00 0.00 0.00 0.00 0.00 0.00 0.00
0.02 0.04 0.04 0.05 0.05 0.05 0.06 0.03 0.01 0.01 0.00 0.00 0.00 0.00 0.00 0.00 0.00 0.00 0.00 0.00 0.00 0.00 0.00 0.00 0.00 0.00 0.00 0.00 0.00 0.00 0.00 0.00 0.00 0.00 0.00 0.00 0.00 0.00 0.00 0.00 0.00 0.00 0.00
0.01 0.02 0.03 0.04 0.04 0.04 0.03 0.02 0.01 0.00 0.00 0.00 0.00 0.00 0.00 0.00 0.00 0.00 0.00 0.00 0.00 0.00 0.00 0.00 0.00 0.00 0.00 0.00 0.00 0.00 0.00 0.00 0.00 0.00 0.00 0.00 0.00 0.00 0.00 0.00 0.00 0.00 0.00
0.01 0.01 0.02 0.02 0.02 0.02 0.02 0.01 0.01 0.01 0.00 0.00 0.00 0.00 0.00 0.00 0.00 0.00 0.00 0.00 0.00 0.00 0.00 0.00 0.00 0.00 0.00 0.00 0.00 0.00 0.00 0.00 0.00 0.00 0.00 0.00 0.00 0.00 0.00 0.00 0.00 0.00 0.00
0.01 0.01 0.01 0.01 0.01 0.01 0.02 0.01 0.01 0.01 0.01 0.01 0.00 0.00 0.00 0.00 0.00 0.00 0.00 0.00 0.00 0.00 0.00 0.00 0.00 0.00 0.00 0.00 0.00 0.00 0.00 0.00 0.00 0.00 0.00 0.00 0.00 0.00 0.00 0.00 0.00 0.00 0.00
0.01 0.01 0.01 0.01 0.01 0.01 0.02 0.02 0.01 0.02 0.01 0.01 0.01 0.00 0.00 0.00 0.01 0.01 0.01 0.00 0.00 0.00 0.00 0.00 0.00 0.00 0.00 0.00 0.00 0.00 0.00 0.00 0.00 0.00 0.00 0.00 0.00 0.00 0.00 0.00 0.00 0.00 0.00
0.01 0.01 0.02 0.02 0.02 0.02 0.02 0.02 0.02 0.02 0.02 0.01 0.01 0.01 0.00 0.00 0.01 0.01 0.00 0.00 0.00 0.00 0.00 0.00 0.00 0.00 0.00 0.00 0.00 0.00 0.00 0.00 0.00 0.00 0.00 0.00 0.00 0.00 0.00 0.00 0.00 0.00 0.00
0.02 0.02 0.01 0.02 0.02 0.02 0.02 0.02 0.03 0.02 0.02 0.01 0.01 0.01 0.01 0.01 0.01 0.00 0.00 0.00 0.00 0.00 0.00 0.00 0.00 0.00 0.00 0.01 0.00 0.00 0.00 0.00 0.00 0.00 0.01 0.01 0.01 0.01 0.01 0.00 0.00 0.00 0.00
0.02 0.02 0.02 0.01 0.01 0.01 0.02 0.02 0.02 0.02 0.01 0.01 0.01 0.02 0.01 0.01 0.01 0.00 0.00 0.00 0.00 0.00 0.00 0.01 0.01 0.01 0.01 0.01 0.01 0.01 0.00 0.00 0.01 0.01 0.01 0.01 0.01 0.01 0.01 0.01 0.00 0.00 0.00
0.02 0.02 0.02 0.02 0.02 0.01 0.01 0.02 0.02 0.01 0.01 0.01 0.02 0.02 0.02 0.02 0.01 0.01 0.01 0.01 0.01 0.01 0.01 0.01 0.01 0.01 0.01 0.01 0.01 0.01 0.01 0.01 0.01 0.00 0.00 0.00 0.01 0.01 0.01 0.01 0.00 0.00 0.00
0.03 0.03 0.03 0.03 0.03 0.02 0.01 0.01 0.02 0.02 0.02 0.03 0.04 0.04 0.05 0.04 0.03 0.04 0.04 0.04 0.04 0.03 0.02 0.02 0.03 0.02 0.02 0.01 0.01 0.01 0.01 0.01 0.01 0.00 0.00 0.01 0.01 0.01 0.01 0.01 0.01 0.01 0.00
0.03 0.04 0.04 0.03 0.03 0.03 0.02 0.02 0.03 0.05 0.06 0.06 0.06 0.06 0.08 0.07 0.06 0.05 0.05 0.05 0.04 0.03 0.03 0.03 0.03 0.03 0.02 0.02 0.02 0.02 0.02 0.02 0.01 0.01 0.01 0.01 0.01 0.01 0.01 0.01 0.01 0.01 0.00
0.03 0.03 0.04 0.03 0.03 0.04 0.04 0.03 0.05 0.06 0.06 0.07 0.08 0.09 0.10 0.10 0.09 0.07 0.06 0.06 0.05 0.05 0.05 0.05 0.04 0.04 0.04 0.04 0.04 0.03 0.03 0.03 0.03 0.02 0.02 0.01 0.01 0.01 0.01 0.01 0.01 0.01 0.01
0.04 0.03 0.03 0.04 0.04 0.05 0.07 0.08 0.08 0.08 0.08 0.09 0.10 0.10 0.11 0.12 0.11 0.10 0.08 0.06 0.05 0.05 0.05 0.04 0.03 0.03 0.03 0.03 0.03 0.03 0.03 0.02 0.02 0.02 0.01 0.01 0.01 0.01 0.01 0.01 0.02 0.02 0.02
0.03 0.03 0.04 0.04 0.04 0.05 0.07 0.08 0.10 0.11 0.10 0.11 0.12 0.11 0.11 0.10 0.09 0.08 0.07 0.06 0.06 0.06 0.05 0.06 0.05 0.05 0.05 0.04 0.04 0.04 0.03 0.02 0.02 0.01 0.01 0.01 0.01 0.01 0.00 0.00 0.00 0.00 0.00
MSLP
1008.79 1008.47 1008.24 1008.16 1008.27 1008.58 1009.11 1009.83 1010.70 1011.66 1012.64 1013.56 1014.38 1015.07 1015.61 1016.03 1016.35 1016.63 1016.89 1017.18 1017.51 1017.87 1018.26 1018.66 1019.03 1019.37 1019.66 1019.89 1020.08 1020.24 1020.37 1020.48 1020.58 1020.65 1020.70 1020.71 1020.69 1020.63 1020.54 1020.43 1020.34 1020.26 1020.22
1008.76 1008.52 1008.34 1008.29 1008.38 1008.66 1009.15 1009.83 1010.68 1011.63 1012.63 1013.59 1014.46 1015.20 1015.78 1016.22 1016.55 1016.82 1017.07 1017.34 1017.65 1018.00 1018.40 1018.80 1019.18 1019.52 1019.81 1020.03 1020.21 1020.34 1020.46 1020.57 1020.68 1020.78 1020.87 1020.94 1020.97 1020.95 1020.89 1020.79 1020.67 1020.55 1020.44
1008.78 1008.66 1008.58 1008.58 1008.70 1008.97 1009.42 1010.05 1010.85 1011.77 1012.75 1013.72 1014.61 1015.37 1015.98 1016.45 1016.79 1017.06 1017.30 1017.57 1017.87 1018.22 1018.61 1019.02 1019.40 1019.73 1020.00 1020.21 1020.36 1020.47 1020.57 1020.68 1020.80 1020.94 1021.08 1021.20 1021.29 1021.32 1021.30 1021.22 1021.09 1020.93 1020.77
1008.87 1008.89 1008.94 1009.03 1009.19 1009.47 1009.88 1010.46 1011.19 1012.05 1012.98 1013.91 1014.78 1015.54 1016.17 1016.64 1017.00 1017.29 1017.54 1017.81 1018.12 1018.47 1018.87 1019.27 1019.65 1019.98 1020.24 1020.42 1020.55 1020.65 1020.73 1020.84 1020.97 1021.13 1021.31 1021.49 1021.64 1021.73 1021.74 1021.69 1021.56 1021.38 1021.16
1009.03 1009.20 1009.39 1009.59 1009.82 1010.11 1010.49 1011.01 1011.65 1012.42 1013.26 1014.11 1014.93 1015.66 1016.28 1016.76 1017.13 1017.44 1017.71 1018.00 1018.32 1018.69 1019.09 1019.50 1019.88 1020.21 1020.46 1020.64 1020.76 1020.84 1020.92 1021.02 1021.16 1021.34 1021.55 1021.77 1021.96 1022.10 1022.16 1022.13 1022.01 1021.82 1021.58
1009.24 1009.57 1009.90 1010.21 1010.51 1010.82 1011.18 1011.62 1012.16 1012.81 1013.53 1014.29 1015.03 1015.70 1016.28 1016.76 1017.14 1017.47 1017.77 1018.08 1018.43 1018.82 1019.23 1019.65 1020.05 1020.38 1020.64 1020.82 1020.93 1021.02 1021.09 1021.19 1021.34 1021.53 1021.75 1021.99 1022.21 1022.38 1022.48 1022.48 1022.39 1022.21 1021.97
1009.48 1009.95 1010.41 1010.83 1011.19 1011.52 1011.85 1012.22 1012.66 1013.18 1013.78 1014.41 1015.05 1015.65 1016.19 1016.65 1017.03 1017.38 1017.70 1018.04 1018.41 1018.82 1019.26 1019.70 1020.10 1020.45 1020.72 1020.91 1021.04 1021.13 1021.21 1021.31 1021.45 1021.63 1021.86 1022.10 1022.33 1022.52 1022.64 1022.68 1022.62 1022.47 1022.25
1009.70 1010.28 1010.85 1011.36 1011.78 1012.13 1012.43 1012.74 1013.09 1013.49 1013.97 1014.48 1015.02 1015.54 1016.02 1016.46 1016.84 1017.20 1017.54 1017.91 1018.30 1018.73 1019.17 1019.62 1020.04 1020.40 1020.69 1020.90 1021.05 1021.15 1021.24 1021.34 1021.47 1021.64 1021.84 1022.07 1022.29 1022.49 1022.63 1022.69 1022.67 1022.57 1022.38
1009.84 1010.51 1011.16 1011.73 1012.20 1012.57 1012.86 1013.13 1013.41 1013.72 1014.09 1014.51 1014.96 1015.41 1015.85 1016.26 1016.64 1017.00 1017.36 1017.73 1018.14 1018.57 1019.02 1019.46 1019.88 1020.25 1020.55 1020.78 1020.95 1021.07 1021.17 1021.27 1021.39 1021.54 1021.72 1021.91 1022.11 1022.30 1022.44 1022.53 1022.55 1022.49 1022.37
1009.84 1010.56 1011.26 1011.88 1012.39 1012.78 1013.09 1013.34 1013.58 1013.85 1014.16 1014.52 1014.91 1015.31 1015.72 1016.11 1016.48 1016.84 1017.21 1017.58 1017.98 1018.40 1018.83 1019.26 1019.67 1020.04 1020.35 1020.60 1020.78 1020.92 1021.03 1021.13 1021.23 1021.36 1021.50 1021.66 1021.83 1021.99 1022.12 1022.22 1022.27 1022.27 1022.20
1009.65 1010.38 1011.10 1011.75 1012.29 1012.72 1013.06 1013.33 1013.59 1013.85 1014.16 1014.50 1014.87 1015.27 1015.66 1016.05 1016.41 1016.78 1017.13 1017.49 1017.87 1018.27 1018.67 1019.08 1019.46 1019.82 1020.12 1020.37 1020.57 1020.72 1020.84 1020.94 1021.04 1021.14 1021.25 1021.37 1021.49 1021.62 1021.74 1021.83 1021.90 1021.93 1021.91
1009.25 1009.97 1010.70 1011.35 1011.92 1012.38 1012.77 1013.10 1013.41 1013.73 1014.07 1014.45 1014.84 1015.25 1015.66 1016.05 1016.42 1016.78 1017.13 1017.48 1017.83 1018.20 1018.57 1018.93 1019.28 1019.61 1019.90 1020.15 1020.35 1020.51 1020.64 1020.75 1020.84 1020.92 1021.00 1021.08 1021.16 1021.24 1021.33 1021.40 1021.47 1021.51 1021.52
1008.67 1009.36 1010.05 1010.70 1011.28 1011.78 1012.24 1012.65 1013.05 1013.46 1013.88 1014.32 1014.77 1015.22 1015.66 1016.07 1016.46 1016.82 1017.16 1017.50 1017.83 1018.16 1018.49 1018.82 1019.14 1019.43 1019.70 1019.94 1020.14 1020.31 1020.44 1020.55 1020.64 1020.71 1020.76 1020.80 1020.84 1020.88 1020.92 1020.96 1021.01 1021.04 1021.06
1007.96 1008.58 1009.22 1009.83 1010.42 1010.97 1011.49 1012.00 1012.51 1013.03 1013.55 1014.08 1014.60 1015.11 1015.58 1016.02 1016.43 1016.80 1017.15 1017.48 1017.80 1018.11 1018.41 1018.71 1019.00 1019.26 1019.51 1019.73 1019.92 1020.09 1020.22 1020.34 1020.42 1020.48 1020.52 1020.53 1020.53 1020.52 1020.51 1020.51 1020.51 1020.52 1020.52
1007.17 1007.71 1008.26 1008.83 1009.41 1009.99 1010.58 1011.19 1011.82 1012.45 1013.08 1013.70 1014.30 1014.86 1015.38 1015.84 1016.27 1016.66 1017.01 1017.35 1017.67 1017.98 1018.28 1018.56 1018.82 1019.06 1019.28 1019.48 1019.66 1019.82 1019.95 1020.06 1020.14 1020.20 1020.22 1020.21 1020.18 1020.13 1020.08 1020.02 1019.97 1019.93 1019.90
1006.37 1006.79 1007.25 1007.76 1008.31 1008.92 1009.58 1010.27 1011.00 1011.74 1012.47 1013.17 1013.83 1014.44 1014.98 1015.48 1015.92 1016.33 1016.70 1017.06 1017.40 1017.73 1018.03 1018.31 1018.57 1018.79 1018.99 1019.17 1019.32 1019.46 1019.58 1019.68 1019.76 1019.81 1019.82 1019.81 1019.76 1019.68 1019.58 1019.48 1019.38 1019.29 1019.21
1005.58 1005.87 1006.22 1006.66 1007.19 1007.82 1008.52 1009.29 1010.11 1010.94 1011.74 1012.51 1013.21 1013.85 1014.41 1014.92 1015.38 1015.80 1016.21 1016.60 1016.97 1017.33 1017.65 1017.95 1018.20 1018.41 1018.59 1018.74 1018.87 1018.98 1019.07 1019.16 1019.23 1019.28 1019.30 1019.29 1019.24 1019.15 1019.03 1018.89 1018.75 1018.61 1018.49
1004.78 1004.94 1005.20 1005.57 1006.08 1006.71 1007.46 1008.30 1009.19 1010.08 1010.94 1011.75 1012.47 1013.12 1013.69 1014.20 1014.67 1015.12 1015.55 1015.98 1016.39 1016.79 1017.15 1017.46 1017.72 1017.93 1018.09 1018.21 1018.30 1018.37 1018.44 1018.52 1018.58 1018.64 1018.67 1018.67 1018.64 1018.56 1018.44 1018.29 1018.12 1017.95 1017.78
1003.96 1004.00 1004.17 1004.49 1004.98 1005.64 1006.43 1007.32 1008.26 1009.20 1010.10 1010.93 1011.67 1012.32 1012.89 1013.40 1013.87 1014.34 1014.80 1015.26 1015.72 1016.16 1016.55 1016.89 1017.16 1017.36 1017.50 1017.59 1017.64 1017.69 1017.73 1017.79 1017.85 1017.92 1017.98 1018.02 1018.01 1017.96 1017.87 1017.72 1017.55 1017.36 1017.16
1003.07 1003.02 1003.13 1003.42 1003.91 1004.58 1005.41 1006.35 1007.35 1008.33 1009.26 1010.10 1010.85 1011.49 1012.06 1012.57 1013.05 1013.54 1014.03 1014.53 1015.02 1015.50 1015.92 1016.28 1016.56 1016.75 1016.87 1016.93 1016.96 1016.98 1017.01 1017.05 1017.13 1017.22 1017.32 1017.40 1017.45 1017.45 1017.39 1017.27 1017.11 1016.91 1016.69
1002.10 1001.99 1002.06 1002.35 1002.85 1003.56 1004.43 1005.42 1006.45 1007.47 1008.42 1009.28 1010.04 1010.69 1011.26 1011.77 1012.27 1012.78 1013.29 1013.82 1014.35 1014.86 1015.31 1015.68 1015.97 1016.16 1016.27 1016.31 1016.32 1016.33 1016.35 1016.41 1016.50 1016.63 1016.77 1016.91 1017.01 1017.07 1017.06 1016.98 1016.83 1016.64 1016.40
1001.09 1000.95 1001.02 1001.31 1001.84 1002.58 1003.50 1004.52 1005.58 1006.63 1007.61 1008.49 1009.25 1009.92 1010.50 1011.04 1011.57 1012.10 1012.64 1013.20 1013.75 1014.28 1014.75 1015.13 1015.42 1015.62 1015.73 1015.77 1015.79 1015.80 1015.84 1015.92 1016.05 1016.22 1016.41 1016.60 1016.76 1016.87 1016.90 1016.85 1016.72 1016.52 1016.27
1000.13 999.99 1000.06 1000.38 1000.93 1001.70 1002.64 1003.68 1004.77 1005.83 1006.82 1007.72 1008.51 1009.20 1009.82 1010.39 1010.95 1011.51 1012.09 1012.67 1013.25 1013.79 1014.27 1014.67 1014.97 1015.17 1015.30 1015.37 1015.40 1015.45 1015.52 1015.64 1015.81 1016.02 1016.26 1016.49 1016.70 1016.84 1016.89 1016.86 1016.73 1016.52 1016.24
999.35 999.23 999.32 999.65 1000.22 1000.99 1001.92 1002.96 1004.04 1005.09 1006.09 1007.00 1007.82 1008.54 1009.20 1009.82 1010.43 1011.03 1011.64 1012.26 1012.85 1013.41 1013.90 1014.31 1014.63 1014.85 1015.01 1015.11 1015.19 1015.28 1015.40 1015.57 1015.79 1016.04 1016.31 1016.56 1016.78 1016.92 1016.97 1016.93 1016.78 1016.54 1016.22
998.91 998.81 998.92 999.25 999.81 1000.55 1001.44 1002.43 1003.47 1004.49 1005.47 1006.38 1007.22 1007.98 1008.68 1009.36 1010.02 1010.67 1011.32 1011.96 1012.58 1013.15 1013.65 1014.07 1014.41 1014.67 1014.86 1015.01 1015.15 1015.29 1015.47 1015.69 1015.94 1016.21 1016.49 1016.73 1016.93 1017.04 1017.06 1016.97 1016.78 1016.49 1016.13
998.93 998.85 998.97 999.29 999.80 1000.48 1001.29 1002.20 1003.15 1004.11 1005.04 1005.93 1006.77 1007.56 1008.31 1009.03 1009.75 1010.45 1011.14 1011.82 1012.45 1013.03 1013.55 1013.98 1014.34 1014.63 1014.87 1015.07 1015.26 1015.47 1015.69 1015.94 1016.21 1016.48 1016.73 1016.93 1017.07 1017.11 1017.06 1016.90 1016.64 1016.30 1015.89
Thickness
5747 5744 5742 5740 5737 5733 5731 5729 5726 5724 5722 5719 5717 5715 5714 5714 5715 5716 5716 5717 5716 5715 5714 5713 5712 5712 5712 5711 5711 5709 5707 5705 5705 5704 5702 5703 5705 5705 5706 5706 5706 5706 5706
5742 5740 5738 5736 5735 5732 5730 5727 5725 5724 5722 5720 5718 5716 5714 5712 5712 5713 5713 5713 5713 5712 5711 5711 5710 5710 5709 5708 5708 5707 5704 5703 5702 5701 5697 5694 5696 5699 5702 5702 5702 5702 5702
5742 5740 5737 5734 5733 5732 5731 5729 5726 5724 5722 5720 5717 5714 5711 5710 5709 5709 5709 5710 5710 5710 5709 5708 5708 5707 5707 5705 5705 5705 5703 5700 5698 5699 5697 5692 5689 5691 5695 5696 5697 5698 5698
5744 5740 5737 5734 5733 5733 5731 5729 5725 5723 5722 5720 5718 5714 5711 5707 5707 5707 5707 5707 5708 5707 5707 5706 5706 5705 5705 5704 5703 5702 5701 5700 5696 5695 5695 5694 5693 5689 5687 5690 5692 5693 5693
5747 5743 5740 5737 5735 5733 5730 5727 5724 5722 5721 5720 5717 5715 5711 5709 5707 5706 5705 5705 5705 5704 5704 5704 5704 5703 5702 5701 5701 5700 5699 5698 5695 5694 5692 5690 5689 5688 5686 5682 5684 5687 5688
5748 5744 5741 5736 5732 5731 5728 5726 5723 5721 5720 5718 5716 5714 5711 5708 5705 5703 5702 5701 5701 5702 5702 5702 5701 5700 5700 5699 5698 5697 5697 5695 5694 5692 5691 5689 5688 5685 5683 5680 5679 5679 5682
5747 5743 5739 5734 5731 5729 5727 5725 5722 5720 5719 5717 5715 5714 5712 5709 5707 5704 5702 5700 5699 5699 5700 5700 5699 5698 5697 5697 5696 5695 5694 5693 5692 5690 5689 5688 5687 5685 5682 5679 5676 5675 5676
5748 5744 5741 5738 5734 5730 5728 5725 5721 5720 5718 5717 5715 5714 5712 5709 5707 5705 5703 5702 5700 5700 5699 5698 5698 5697 5696 5694 5693 5692 5691 5690 5689 5688 5686 5685 5684 5683 5681 5679 5675 5672 5671
5749 5746 5742 5739 5736 5732 5729 5726 5722 5720 5718 5717 5715 5713 5711 5709 5707 5705 5704 5702 5701 5700 5699 5697 5696 5695 5694 5692 5691 5690 5688 5687 5686 5685 5684 5682 5681 5680 5679 5678 5676 5672 5667
5750 5747 5744 5741 5738 5734 5729 5726 5724 5721 5719 5717 5715 5713 5711 5710 5707 5705 5703 5702 5700 5699 5698 5696 5695 5693 5692 5690 5689 5687 5686 5684 5683 5682 5681 5680 5678 5677 5676 5675 5673 5671 5668
5751 5748 5746 5742 5739 5734 5730 5726 5723 5721 5719 5717 5715 5713 5711 5709 5707 5705 5703 5701 5700 5699 5697 5695 5693 5692 5690 5688 5686 5685 5684 5682 5681 5680 5679 5677 5676 5674 5673 5671 5670 5668 5666
5752 5749 5745 5741 5737 5734 5731 5728 5725 5723 5720 5718 5715 5713 5711 5708 5706 5705 5703 5701 5700 5698 5697 5695 5692 5691 5689 5687 5685 5684 5682 5681 5679 5678 5676 5675 5673 5671 5669 5668 5666 5664 5663
5750 5747 5744 5740 5737 5735 5733 5730 5727 5724 5721 5718 5715 5713 5710 5708 5706 5705 5703 5701 5699 5697 5696 5693 5691 5690 5688 5686 5684 5683 5681 5679 5678 5676 5674 5673 5671 5668 5666 5665 5663 5661 5660
5748 5746 5744 5741 5739 5737 5735 5732 5729 5726 5723 5719 5716 5713 5711 5710 5707 5705 5703 5701 5699 5697 5695 5693 5691 5689 5687 5685 5683 5681 5679 5677 5676 5674 5672 5671 5669 5667 5665 5663 5660 5658 5656
5745 5745 5744 5742 5739 5737 5735 5733 5730 5727 5724 5720 5717 5715 5712 5710 5707 5705 5703 5701 5698 5697 5694 5691 5689 5687 5686 5684 5682 5680 5678 5675 5674 5672 5670 5669 5667 5666 5663 5661 5659 5656 5653
5746 5746 5745 5743 5741 5739 5737 5734 5731 5729 5725 5721 5718 5715 5712 5710 5707 5705 5703 5700 5697 5695 5692 5690 5688 5686 5685 5683 5681 5678 5676 5674 5671 5670 5668 5667 5666 5664 5662 5660 5658 5655 5651
5748 5747 5747 5746 5745 5743 5741 5737 5734 5730 5726 5722 5719 5716 5713 5710 5708 5705 5702 5699 5696 5694 5691 5689 5687 5685 5684 5682 5680 5677 5674 5671 5669 5667 5666 5665 5664 5662 5659 5657 5655 5652 5649
5749 5749 5748 5747 5746 5745 5742 5739 5735 5730 5726 5723 5720 5717 5713 5710 5707 5704 5701 5698 5695 5693 5690 5688 5686 5683 5682 5680 5678 5675 5672 5669 5667 5665 5663 5661 5660 5658 5655 5653 5650 5648 5646
5753 5753 5752 5750 5747 5745 5743 5738 5734 5730 5726 5724 5721 5718 5715 5711 5707 5704 5701 5698 5695 5692 5689 5687 5684 5682 5680 5678 5675 5672 5669 5666 5664 5662 5660 5658 5656 5655 5651 5648 5645 5644 5643
5753 5753 5753 5750 5747 5746 5743 5737 5734 5730 5728 5728 5725 5721 5716 5712 5708 5705 5701 5697 5694 5691 5688 5685 5683 5680 5678 5676 5672 5669 5665 5662 5660 5658 5656 5654 5652 5650 5647 5643 5640 5638 5637
5751 5752 5751 5749 5749 5747 5743 5737 5735 5733 5733 5730 5725 5720 5716 5712 5708 5704 5700 5696 5692 5688 5685 5682 5680 5677 5675 5673 5669 5665 5661 5659 5657 5655 5653 5651 5648 5645 5642 5638 5636 5634 5631
5748 5750 5748 5747 5747 5746 5742 5738 5735 5736 5732 5727 5722 5719 5715 5711 5707 5701 5697 5693 5689 5685 5682 5678 5676 5674 5672 5670 5667 5663 5659 5656 5653 5651 5649 5646 5643 5640 5636 5633 5631 5627 5622
5742 5745 5746 5744 5744 5744 5743 5738 5737 5733 5729 5724 5720 5716 5712 5709 5705 5700 5695 5689 5685 5682 5679 5675 5673 5671 5669 5666 5663 5660 5656 5652 5649 5647 5644 5641 5637 5634 5631 5628 5624 5620 5616
5737 5740 5740 5739 5739 5739 5739 5737 5734 5730 5726 5721 5717 5713 5709 5704 5701 5697 5693 5688 5683 5679 5676 5673 5670 5667 5664 5662 5659 5656 5652 5647 5643 5641 5638 5634 5630 5627 5624 5621 5618 5614 5611
5731 5734 5734 5733 5732 5732 5731 5730 5727 5725 5720 5717 5713 5708 5704 5700 5696 5692 5689 5686 5683 5680 5675 5672 5668 5663 5661 5660 5656 5651 5648 5643 5639 5633 5629 5625 5622 5619 5617 5613 5610 5607 5603
5723 5726 5726 5726 5725 5725 5724 5723 5722 5720 5716 5710 5706 5703 5698 5694 5691 5686 5682 5680 5678 5674 5671 5667 5664 5661 5658 5655 5650 5645 5641 5636 5630 5624 5622 5619 5616 5612 5610 5607 5604 5600 5596